Location: Kumla
(59.1265°N, 15.1401°E)
Time: 05:20:22
(UTC+01:00)

Vanguard 2 Rocket - Pass Details

Date: 05 December 2023
Orbit: 554 x 3309 km, 32.9° (Epoch: 27 February)

Event Time Altitude Azimuth Distance (km) Brightness Sun altitude
Rises 14:20:13 0° 213° (SSW) 6,548 14.9 2.8°
Reaches altitude 10° 14:25:39 10° 201° (SSW) 5,857 12.9 2.4°
Maximum altitude 14:38:39 24° 157° (SSE) 5,152 11.1 1.4°
Drops below altitude 10° 14:52:04 10° 114° (ESE) 6,075 10.9 0.3°
Sets 14:57:48 0° 103° (ESE) 6,840 11.1 -0.2°
